Weather History for Shenandoah, IA

Change the Weather History Date:

Tuesday, November 20, 2012

  Actual Average Record
Temperature  
Mean Temperature 48 °F -  
Max Temperature 64 °F 48 °F 71 °F (2003)
Min Temperature 32 °F 27 °F 6 °F (1985)
Degree Days  
Heating Degree Days 17    
Moisture  
Dew Point 35 °F    
Average Humidity 65    
Maximum Humidity 87    
Minimum Humidity 26    
Precipitation  
Precipitation 0.00 in - - ()
Sea Level Pressure  
Sea Level Pressure 30.19 in    
Wind  
Wind Speed 1 mph (WSW)    
Max Wind Speed 8 mph    
Max Gust Speed -    
Visibility 9 miles    
Events      
Averages and records for this station are not official NWS values.
T = Trace of Precipitation, MM = Missing Value Source: NWS Daily Summary

Daily Weather History Graph

Daily Weather History Graph

Search for Another Location

Airport:

Trip Planner

Search our weather history database for the weather conditions in past years. The results will help you decide how hot, cold, wet, or windy it might be!

Date:

Astronomy

Nov. 20, 2012 Rise Set
Actual Time 7:14 AM CST 4:59 PM CST
Civil Twilight 6:45 AM CST 5:29 PM CST
Nautical Twilight 6:11 AM CST 6:02 PM CST
Astronomical Twilight 5:39 AM CST 6:35 PM CST
Moon 12:48 PM CST (11/20) No Moon Set
Length of Visible Light 10h 44m
Length of Day
9h 44m
First Quarter, 51% of the Moon is Illuminated
Nov 20
First Quarter
Nov 28
Full
Dec 6
Last Quarter
Dec 13
New
Dec 19
First Quarter

Hourly Weather History & Observations

Time (CST) Temp. Windchill Dew Point Humidity Pressure Visibility Wind Dir Wind Speed Gust Speed Precip Events Conditions
12:17 AM 39.2 °F - 33.8 °F 81% 30.12 in 10.0 mi Calm Calm - N/A   Scattered Clouds
12:37 AM 39.2 °F - 33.8 °F 81% 30.12 in 10.0 mi Calm Calm - N/A   Scattered Clouds
12:58 AM 37.4 °F - 33.8 °F 87% 30.13 in 10.0 mi Calm Calm - N/A   Scattered Clouds
1:17 AM 37.4 °F - 33.8 °F 87% 30.14 in 10.0 mi Calm Calm - N/A   Scattered Clouds
1:57 AM 37.4 °F 32.8 °F 32.0 °F 81% 30.15 in 10.0 mi WNW 5.8 mph - N/A   Scattered Clouds
2:17 AM 41.0 °F 36.4 °F 35.6 °F 81% 30.15 in 10.0 mi WNW 6.9 mph - N/A   Scattered Clouds
2:35 AM 42.8 °F 38.0 °F 35.6 °F 76% 30.15 in 10.0 mi WNW 8.1 mph - N/A   Scattered Clouds
6:15 AM 32.0 °F 28.7 °F 26.6 °F 80% 30.19 in 4.0 mi West 3.5 mph - N/A   Haze
6:35 AM 35.6 °F - 30.2 °F 81% 30.21 in 7.0 mi Calm Calm - N/A   Scattered Clouds
6:55 AM 37.4 °F - 33.8 °F 87% 30.21 in 7.0 mi Calm Calm - N/A   Scattered Clouds
7:15 AM 39.2 °F - 33.8 °F 81% 30.21 in 7.0 mi Calm Calm - N/A   Scattered Clouds
7:35 AM 37.4 °F - 32.0 °F 81% 30.21 in 7.0 mi Calm Calm - N/A   Clear
7:55 AM 35.6 °F - 30.2 °F 81% 30.22 in 5.0 mi Calm Calm - N/A   Haze
8:15 AM 37.4 °F - 32.0 °F 81% 30.23 in 5.0 mi Calm Calm - N/A   Haze
8:35 AM 39.2 °F 37.0 °F 33.8 °F 81% 30.23 in 4.0 mi WSW 3.5 mph - N/A   Haze
8:55 AM 41.0 °F 39.0 °F 35.6 °F 81% 30.23 in 5.0 mi West 3.5 mph - N/A   Haze
9:15 AM 42.8 °F 41.1 °F 37.4 °F 81% 30.24 in 7.0 mi West 3.5 mph - N/A   Clear
9:35 AM 46.4 °F 45.2 °F 37.4 °F 71% 30.24 in 7.0 mi NNW 3.5 mph - N/A   Clear
9:55 AM 48.2 °F - 39.2 °F 71% 30.24 in 7.0 mi North 3.5 mph - N/A   Clear
10:15 AM 50.0 °F - 39.2 °F 66% 30.24 in 7.0 mi Calm Calm - N/A   Clear
10:35 AM 51.8 °F - 39.2 °F 62% 30.25 in 10.0 mi Calm Calm - N/A   Clear
10:55 AM 53.6 °F - 39.2 °F 58% 30.25 in 10.0 mi NW 4.6 mph - N/A   Clear
11:15 AM 53.6 °F - 39.2 °F 58% 30.24 in 10.0 mi Calm Calm - N/A   Clear
11:35 AM 55.4 °F - 39.2 °F 54% 30.23 in 10.0 mi West 3.5 mph - N/A   Clear
12:15 PM 57.2 °F - 41.0 °F 55% 30.21 in 10.0 mi West 4.6 mph - N/A   Clear
12:38 PM 59.0 °F - 41.0 °F 51% 30.20 in 10.0 mi Calm Calm - N/A   Clear
12:56 PM 60.8 °F - 39.2 °F 45% 30.20 in 10.0 mi Calm Calm - N/A   Clear
1:16 PM 60.8 °F - 39.2 °F 45% 30.19 in 10.0 mi Calm Calm - N/A   Clear
1:36 PM 62.6 °F - 39.2 °F 42% 30.18 in 10.0 mi WSW 3.5 mph - N/A   Clear
2:16 PM 62.6 °F - 35.6 °F 37% 30.17 in 10.0 mi Calm Calm - N/A   Clear
2:36 PM 64.4 °F - 35.6 °F 34% 30.17 in 10.0 mi Calm Calm - N/A   Clear
2:57 PM 64.4 °F - 32.0 °F 30% 30.17 in 10.0 mi Calm Calm - N/A   Clear
3:17 PM 64.4 °F - 32.0 °F 30% 30.16 in 10.0 mi Calm Calm - N/A   Clear
3:37 PM 64.4 °F - 33.8 °F 32% 30.16 in 10.0 mi Calm Calm - N/A   Clear
3:56 PM 64.4 °F - 28.4 °F 26% 30.17 in 10.0 mi Calm Calm - N/A   Clear
4:17 PM 62.6 °F - 33.8 °F 34% 30.16 in 10.0 mi Calm Calm - N/A   Clear
4:37 PM 62.6 °F - 30.2 °F 30% 30.16 in 10.0 mi South 4.6 mph - N/A   Clear
4:57 PM 59.0 °F - 32.0 °F 36% 30.16 in 10.0 mi South 3.5 mph - N/A   Clear
5:16 PM 55.4 °F - 33.8 °F 44% 30.17 in 10.0 mi South 3.5 mph - N/A   Scattered Clouds
5:36 PM 55.4 °F - 33.8 °F 44% 30.17 in 10.0 mi South 3.5 mph - N/A   Scattered Clouds
5:56 PM 44.6 °F 42.2 °F 33.8 °F 66% 30.17 in 10.0 mi South 4.6 mph - N/A   Unknown
6:17 PM 44.6 °F - 33.8 °F 66% 30.17 in 10.0 mi Calm Calm - N/A   Clear
6:37 PM 44.6 °F - 33.8 °F 66% 30.18 in 10.0 mi Calm Calm - N/A   Scattered Clouds
6:57 PM 42.8 °F - 33.8 °F 70% 30.18 in 10.0 mi Calm Calm - N/A   Scattered Clouds
7:16 PM 44.6 °F - 33.8 °F 66% 30.18 in 10.0 mi Calm Calm - N/A   Scattered Clouds
7:37 PM 42.8 °F - 35.6 °F 76% 30.18 in 10.0 mi Calm Calm - N/A   Scattered Clouds
7:56 PM 42.8 °F - 35.6 °F 76% 30.18 in 10.0 mi Calm Calm - N/A   Scattered Clouds
8:17 PM 42.8 °F 41.1 °F 33.8 °F 70% 30.18 in 10.0 mi SE 3.5 mph - N/A   Scattered Clouds
8:36 PM 44.6 °F - 33.8 °F 66% 30.18 in 10.0 mi Calm Calm - N/A   Clear
8:57 PM 44.6 °F - 35.6 °F 71% 30.18 in 10.0 mi Calm Calm - N/A   Scattered Clouds
9:17 PM 41.0 °F - 33.8 °F 76% 30.18 in 10.0 mi Calm Calm - N/A   Scattered Clouds
9:37 PM 41.0 °F - 35.6 °F 81% 30.18 in 10.0 mi Calm Calm - N/A   Scattered Clouds
9:57 PM 42.8 °F - 35.6 °F 76% 30.18 in 10.0 mi Calm Calm - N/A   Scattered Clouds
10:16 PM 44.6 °F - 35.6 °F 71% 30.18 in 10.0 mi Calm Calm - N/A   Scattered Clouds
10:36 PM 44.6 °F - 35.6 °F 71% 30.18 in 10.0 mi Calm Calm - N/A   Scattered Clouds
10:56 PM 46.4 °F - 37.4 °F 71% 30.18 in 10.0 mi Calm Calm - N/A   Scattered Clouds
11:17 PM 42.8 °F - 35.6 °F 76% 30.17 in 10.0 mi Calm Calm - N/A   Scattered Clouds
11:37 PM 44.6 °F 42.2 °F 37.4 °F 76% 30.17 in 10.0 mi SSE 4.6 mph - N/A   Scattered Clouds
11:56 PM 41.0 °F 39.0 °F 33.8 °F 76% 30.17 in 10.0 mi SSW 3.5 mph - N/A   Scattered Clouds